Weather History for Guatemala Aeropuertola Aurora, Guatemala

Change the Weather History Date:

Thursday, October 31, 2013

  Actual Average Record
Temperature  
Mean Temperature 70 °F -  
Max Temperature 78 °F 71 °F - ()
Min Temperature 62 °F 56 °F - ()
Cooling Degree Days 5    
Growing Degree Days 20 (Base 50)    
Moisture  
Dew Point 61 °F    
Average Humidity 78    
Maximum Humidity 96    
Minimum Humidity 54    
Precipitation  
Precipitation 0.00 in - - ()
Sea Level Pressure  
Sea Level Pressure 30.23 in    
Wind  
Wind Speed 7 mph ()    
Max Wind Speed 18 mph    
Max Gust Speed -    
Visibility 6.0 miles    
Events Rain , Thunderstorm    
T = Trace of Precipitation, MM = Missing Value Source: Averaged Metar Reports

Daily Weather History Graph

Daily Weather History Graph

Search for Another Location

Airport:

Trip Planner

Search our weather history database for the weather conditions in past years. The results will help you decide how hot, cold, wet, or windy it might be!

Date:

Astronomy

Oct. 31, 2013 Rise Set
Actual Time 5:57 AM CST 5:33 PM CST
Civil Twilight 5:35 AM CST 5:55 PM CST
Nautical Twilight 5:09 AM CST 6:21 PM CST
Astronomical Twilight 4:44 AM CST 6:46 PM CST
Moon 3:14 AM CST (10/31) 3:29 PM CST (10/31)
Length of Visible Light 12h 20m
Length of Day
11h 36m
Waning Crescent, 9% of the Moon is Illuminated
Oct 31
Waning Crescent
Nov 3
New
Nov 9
First Quarter
Nov 17
Full
Nov 25
Last Quarter

Hourly Weather History & Observations

Time (CST) Temp. Dew Point Humidity Pressure Visibility Wind Dir Wind Speed Gust Speed Precip Events Conditions
12:00 AM 64.4 °F 62.6 °F 94% 30.30 in 6.2 mi North 9.2 mph - N/A   Mostly Cloudy
1:00 AM 64.4 °F 62.6 °F 94% 30.27 in 6.2 mi North 6.9 mph - N/A   Mostly Cloudy
2:00 AM 62.6 °F 60.8 °F 94% 30.24 in 6.2 mi North 6.9 mph - N/A   Scattered Clouds
3:00 AM 62.6 °F 60.8 °F 94% 30.24 in 6.2 mi North 6.9 mph - N/A   Scattered Clouds
4:00 AM 62.6 °F 60.8 °F 94% 30.24 in 6.2 mi North 6.9 mph - N/A   Scattered Clouds
5:00 AM 62.6 °F 60.8 °F 94% 30.24 in 6.2 mi North 6.9 mph - N/A   Scattered Clouds
5:43 AM - - N/A% - 6.2 mi North 5.8 mph - N/A   Scattered Clouds
6:00 AM 62 °F 61 °F 96% 29.95 in 3 mi North 6.9 mph - -   Mostly Cloudy
6:00 AM 62.6 °F 60.8 °F 94% 30.27 in 3.1 mi North 6.9 mph - N/A   Mostly Cloudy
6:37 AM - - N/A% - 6.2 mi North 5.8 mph - N/A   Scattered Clouds
7:00 AM 62.6 °F 60.8 °F 94% 30.30 in 6.2 mi North 6.9 mph - N/A   Scattered Clouds
8:00 AM 66.2 °F 62.6 °F 88% 30.30 in 6.2 mi North 6.9 mph - N/A   Scattered Clouds
9:00 AM 69.8 °F 60.8 °F 73% 30.33 in 6.2 mi North 11.5 mph - N/A   Mostly Cloudy
10:00 AM 71.6 °F 62.6 °F 73% 30.33 in 6.2 mi North 9.2 mph - N/A   Mostly Cloudy
11:00 AM 75.2 °F 60.8 °F 61% 30.30 in 6.2 mi North 9.2 mph - N/A   Scattered Clouds
12:00 PM 77.0 °F 59.0 °F 54% 30.27 in 6.2 mi North 16.1 mph - N/A   Scattered Clouds
1:00 PM 77.0 °F 60.8 °F 57% 30.24 in 6.2 mi North 18.4 mph - N/A   Scattered Clouds
2:00 PM 77.0 °F 60.8 °F 57% 30.21 in 6.2 mi NNE 9.2 mph - N/A   Partly Cloudy
3:00 PM 77.0 °F 60.8 °F 57% 30.18 in 6.2 mi NNE 9.2 mph - N/A   Partly Cloudy
4:00 PM 75.2 °F 60.8 °F 61% 30.18 in 6.2 mi North 9.2 mph - N/A   Mostly Cloudy
4:35 PM - - N/A% - 6.2 mi SE 4.6 mph - N/A Rain , Thunderstorm Light Thunderstorms and Rain
5:00 PM 73.4 °F 60.8 °F 65% 30.18 in 6.2 mi North 6.9 mph - N/A   Mostly Cloudy
6:00 PM 72 °F 59 °F 55% 29.90 in 25 mi North 9.2 mph - -   Scattered Clouds
6:00 PM 71.6 °F 59.0 °F 64% 30.21 in 6.2 mi North 9.2 mph - N/A   Mostly Cloudy
7:00 PM 69.8 °F 60.8 °F 73% 30.24 in 6.2 mi North 9.2 mph - N/A   Partly Cloudy
8:00 PM 68.0 °F 62.6 °F 83% 30.27 in 6.2 mi North 9.2 mph - N/A   Partly Cloudy
9:00 PM 66.2 °F 62.6 °F 88% 30.27 in 6.2 mi North 4.6 mph - N/A   Partly Cloudy
9:30 PM - - N/A% - 6.2 mi North 6.9 mph - N/A   Mostly Cloudy
10:00 PM 66.2 °F 64.4 °F 94% 30.27 in 6.2 mi North 6.9 mph - N/A   Mostly Cloudy
11:00 PM 66.2 °F 62.6 °F 88% 30.27 in 6.2 mi North 4.6 mph - N/A   Mostly Cloudy